Hourly Data Report for July 25, 2021

NORTH CAPE
PRINCE EDWARD ISLAND
Current Station Operator: ECCC - MSC

47°03'29.000" N
63°59'55.000" W
7.60 m
8300516
71987
WNE

Download Data

Hourly Data (July 2021)
Hourly Data Report for July 25, 2021
TIME
LST
Temp Definition
°C
Dew Point Definition
°C
Rel Hum Definition
%
Precip. Amount Definition
mm

Wind Dir Definition
10's deg

Wind Spd Definition
km/h
Visibility Definition
km
Stn Press Definition
kPa
Hmdx Definition


Wind Chill Definition


Weather Definition


00:00 17.7 16.3 92 0.0 14 22   101.52     LegendNANA
01:00 18.0 16.3 90 0.0 16 14   101.48     LegendNANA
02:00 17.8 15.7 87 0.0 17 9   101.47     LegendNANA
03:00 17.2 14.9 86 0.0 17 10   101.46     LegendNANA
04:00 16.8 14.2 85 0.0 18 11   101.43     LegendNANA
05:00 17.4 13.5 78 0.0 22 21   101.40     LegendNANA
06:00 17.5 13.9 80 0.0 22 20   101.40     LegendNANA
07:00 18.0 14.4 79 0.0 22 21   101.41     LegendNANA
08:00 19.1 14.7 76 0.0 22 20   101.41     LegendNANA
09:00 19.3 14.8 75 0.0 23 21   101.39     LegendNANA
10:00 20.2 14.6 70 0.0 23 23   101.38     LegendNANA
11:00 20.3 13.8 66 0.0 24 19   101.37     LegendNANA
12:00 20.8 13.7 64 0.0 23 13   101.30     LegendNANA
13:00 23.6 14.1 55 0.0 16 15   101.24 27   LegendNANA
14:00 24.4 14.8 55 0.0 15 14   101.21 28   LegendNANA
15:00 22.0 16.9 73 0.0 14 19   101.18 27   LegendNANA
16:00 25.9 12.7 44 0.0 19 19   101.13 29   LegendNANA
17:00 24.3 11.6 45 0.0 20 21   101.10 26   LegendNANA
18:00 23.3 12.5 51 0.0 20 16   101.09 26   LegendNANA
19:00 21.4 12.5 57 0.0 20 12   101.12     LegendNANA
20:00 20.0 13.1 64 0.0 20 17   101.13     LegendNANA
21:00 19.5 12.3 63 0.0 21 17   101.16     LegendNANA
22:00 18.7 12.1 65 0.0 20 16   101.13     LegendNANA
23:00 18.6 13.4 72 0.0 18 13   101.08     LegendNANA

Notes on Data Quality.

Legend

  • E = Estimated
  • M = Missing
  • NA = Not Available*
  • [empty] = Indicates an unobserved value
Date modified: